AAL243 MDPP-KMIA

Flight info

Callsign AAL243
Flight time N/A
Altitude 38000
Route MALVN3C MALVN Y261 MADIZ VIICE2
Aircraft B738/M-SDE2E3FGHIRWXY/LB1

Departure

Time 2026-05-07 20:46
Airport Gregorio Luperon International Airport (MDPP)

Arrival

Time N/A
Airport Miami International Airport (KMIA)
Time Latitude Longitude Altitude Speed Heading
2026-05-07 20:18 19.75635 -70.56354 39 ft 0 kts 218°
2026-05-07 20:32 19.75636 -70.56353 39 ft 1 kts 218°
2026-05-07 20:32 19.75649 -70.56343 39 ft 3 kts 208°
2026-05-07 20:33 19.75667 -70.56334 37 ft 3 kts 197°
2026-05-07 20:33 19.75680 -70.56330 35 ft 3 kts 197°
2026-05-07 20:33 19.75702 -70.56320 33 ft 2 kts 238°
2026-05-07 20:33 19.75705 -70.56315 33 ft 1 kts 253°
2026-05-07 20:38 19.75703 -70.56320 33 ft 2 kts 253°
2026-05-07 20:38 19.75698 -70.56339 33 ft 3 kts 253°
2026-05-07 20:38 19.75704 -70.56363 32 ft 5 kts 294°
2026-05-07 20:39 19.75715 -70.56411 31 ft 8 kts 250°
2026-05-07 20:39 19.75693 -70.56461 31 ft 7 kts 252°
2026-05-07 20:39 19.75678 -70.56516 31 ft 8 kts 253°
2026-05-07 20:39 19.75660 -70.56579 30 ft 9 kts 253°
2026-05-07 20:40 19.75640 -70.56647 30 ft 10 kts 253°
2026-05-07 20:40 19.75621 -70.56714 30 ft 9 kts 253°
2026-05-07 20:40 19.75601 -70.56782 30 ft 10 kts 253°
2026-05-07 20:40 19.75578 -70.56860 28 ft 12 kts 252°
2026-05-07 20:41 19.75556 -70.56940 25 ft 9 kts 253°
2026-05-07 20:41 19.75539 -70.56999 23 ft 7 kts 253°
2026-05-07 20:41 19.75540 -70.57052 22 ft 8 kts 308°
2026-05-07 20:41 19.75582 -70.57101 21 ft 10 kts 313°
2026-05-07 20:42 19.75630 -70.57155 21 ft 10 kts 313°
2026-05-07 20:42 19.75676 -70.57208 21 ft 10 kts 313°
2026-05-07 20:42 19.75710 -70.57268 20 ft 10 kts 266°
2026-05-07 20:42 19.75690 -70.57338 21 ft 10 kts 252°
2026-05-07 20:43 19.75670 -70.57407 20 ft 10 kts 253°
2026-05-07 20:43 19.75650 -70.57477 20 ft 11 kts 253°
2026-05-07 20:43 19.75627 -70.57557 19 ft 11 kts 253°
2026-05-07 20:43 19.75605 -70.57634 20 ft 11 kts 253°
2026-05-07 20:44 19.75583 -70.57710 23 ft 11 kts 253°
2026-05-07 20:44 19.75562 -70.57782 25 ft 10 kts 253°
2026-05-07 20:44 19.75538 -70.57867 26 ft 15 kts 252°
2026-05-07 20:44 19.75500 -70.57996 27 ft 21 kts 253°
2026-05-07 20:45 19.75457 -70.58146 28 ft 21 kts 253°
2026-05-07 20:45 19.75413 -70.58293 27 ft 21 kts 245°
2026-05-07 20:45 19.75363 -70.58382 26 ft 7 kts 280°
2026-05-07 20:45 19.75394 -70.58378 27 ft 6 kts 74°
2026-05-07 20:46 19.75403 -70.58335 27 ft 6 kts 72°
2026-05-07 20:46 19.75478 -70.58074 28 ft 92 kts 73°
2026-05-07 20:46 19.75775 -70.57063 129 ft 186 kts 73°
2026-05-07 20:46 19.76202 -70.55607 1036 ft 214 kts 73°
2026-05-07 20:47 19.76628 -70.54119 1928 ft 209 kts 73°
2026-05-07 20:47 19.77071 -70.52548 2409 ft 236 kts 73°
2026-05-07 20:47 19.77745 -70.50928 3148 ft 247 kts 50°
2026-05-07 20:47 19.79169 -70.49943 4088 ft 249 kts 15°
2026-05-07 20:48 19.80892 -70.49944 5034 ft 255 kts 343°
2026-05-07 20:48 19.82665 -70.50497 5701 ft 276 kts 353°
2026-05-07 20:48 19.84564 -70.50185 5989 ft 281 kts 22°
2026-05-07 20:48 19.86369 -70.49368 6006 ft 283 kts 21°
2026-05-07 20:49 19.88261 -70.48822 6078 ft 285 kts 359°
2026-05-07 20:49 19.90151 -70.49389 6917 ft 286 kts 329°
2026-05-07 20:49 19.91653 -70.50750 8086 ft 286 kts 306°
2026-05-07 20:49 19.92750 -70.52521 9129 ft 289 kts 301°
2026-05-07 20:50 19.93800 -70.54371 10075 ft 295 kts 300°
2026-05-07 20:50 19.94873 -70.56295 10663 ft 315 kts 300°
2026-05-07 20:50 19.96041 -70.58392 10864 ft 343 kts 300°
2026-05-07 20:50 19.97301 -70.60645 11193 ft 362 kts 300°
2026-05-07 20:51 19.98609 -70.62970 11820 ft 369 kts 300°
2026-05-07 20:51 19.99935 -70.65318 12561 ft 372 kts 301°
2026-05-07 20:51 20.01279 -70.67691 13238 ft 376 kts 301°
2026-05-07 20:51 20.02642 -70.70095 13783 ft 383 kts 301°
2026-05-07 20:52 20.04023 -70.72530 14444 ft 385 kts 301°
2026-05-07 20:52 20.05409 -70.74973 15034 ft 388 kts 301°
2026-05-07 20:52 20.06812 -70.77447 15542 ft 393 kts 301°
2026-05-07 20:52 20.08232 -70.79950 16018 ft 397 kts 301°
2026-05-07 20:53 20.09664 -70.82477 16516 ft 400 kts 301°
2026-05-07 20:53 20.11106 -70.85024 16971 ft 403 kts 301°
2026-05-07 20:53 20.12560 -70.87590 17413 ft 406 kts 301°
2026-05-07 20:53 20.14004 -70.90143 17823 ft 409 kts 301°
2026-05-07 20:54 20.15479 -70.92748 18172 ft 414 kts 301°
2026-05-07 20:54 20.16970 -70.95385 18484 ft 417 kts 301°
2026-05-07 20:54 20.18467 -70.98034 18863 ft 419 kts 301°
2026-05-07 20:54 20.19975 -71.00703 19185 ft 422 kts 301°
2026-05-07 20:55 20.21488 -71.03383 19552 ft 423 kts 301°
2026-05-07 20:55 20.23015 -71.06088 19659 ft 430 kts 301°
2026-05-07 20:55 20.24556 -71.08820 19992 ft 430 kts 301°
2026-05-07 20:55 20.26101 -71.11559 20260 ft 432 kts 301°
2026-05-07 20:56 20.27645 -71.14299 20591 ft 432 kts 301°
2026-05-07 20:56 20.29194 -71.17048 20743 ft 436 kts 301°
2026-05-07 20:56 20.30762 -71.19833 20927 ft 438 kts 300°
2026-05-07 20:56 20.32324 -71.22609 21238 ft 437 kts 300°
2026-05-07 20:57 20.33893 -71.25397 21502 ft 438 kts 300°
2026-05-07 20:57 20.35455 -71.28176 21736 ft 439 kts 300°
2026-05-07 20:57 20.37031 -71.30981 21867 ft 442 kts 300°
2026-05-07 20:57 20.38610 -71.33793 22033 ft 444 kts 300°
2026-05-07 20:58 20.40199 -71.36623 22118 ft 447 kts 300°
2026-05-07 20:58 20.41802 -71.39471 22254 ft 448 kts 301°
2026-05-07 20:58 20.43476 -71.42273 22371 ft 450 kts 303°
2026-05-07 20:58 20.45222 -71.45053 22492 ft 452 kts 304°
2026-05-07 20:59 20.46997 -71.47827 22579 ft 453 kts 304°
2026-05-07 20:59 20.48753 -71.50562 22789 ft 452 kts 304°
2026-05-07 20:59 20.50522 -71.53330 22968 ft 452 kts 304°
2026-05-07 20:59 20.52307 -71.56140 23156 ft 451 kts 303°
2026-05-07 21:00 20.54041 -71.58882 23265 ft 452 kts 303°
2026-05-07 21:00 20.55793 -71.61662 23470 ft 451 kts 303°
2026-05-07 21:00 20.57545 -71.64448 23557 ft 453 kts 303°
2026-05-07 21:00 20.59304 -71.67250 23596 ft 456 kts 303°
2026-05-07 21:01 20.61071 -71.70065 23670 ft 457 kts 303°
2026-05-07 21:01 20.62840 -71.72885 23782 ft 457 kts 303°
2026-05-07 21:01 20.64609 -71.75707 23886 ft 457 kts 303°
2026-05-07 21:01 20.66378 -71.78528 23999 ft 458 kts 303°
2026-05-07 21:02 20.68151 -71.81357 24049 ft 459 kts 303°
2026-05-07 21:02 20.69930 -71.84198 24055 ft 461 kts 303°
2026-05-07 21:02 20.71712 -71.87045 24088 ft 463 kts 303°
2026-05-07 21:02 20.73500 -71.89901 24204 ft 462 kts 303°
2026-05-07 21:03 20.75279 -71.92747 24387 ft 459 kts 303°
2026-05-07 21:03 20.77053 -71.95584 24478 ft 460 kts 303°
2026-05-07 21:03 20.78832 -71.98431 24517 ft 461 kts 303°
2026-05-07 21:03 20.80611 -72.01281 24545 ft 462 kts 303°
2026-05-07 21:04 20.82400 -72.04147 24575 ft 463 kts 303°
2026-05-07 21:04 20.84186 -72.07010 24616 ft 464 kts 303°
2026-05-07 21:04 20.85986 -72.09896 24546 ft 467 kts 303°
2026-05-07 21:04 20.87782 -72.12778 24701 ft 465 kts 303°
2026-05-07 21:05 20.89570 -72.15649 24782 ft 464 kts 303°
2026-05-07 21:05 20.91362 -72.18527 24747 ft 467 kts 303°
2026-05-07 21:05 20.93161 -72.21419 24833 ft 466 kts 303°
2026-05-07 21:05 20.94951 -72.24296 24967 ft 464 kts 303°
2026-05-07 21:06 20.96739 -72.27173 25005 ft 464 kts 303°
2026-05-07 21:06 20.98530 -72.30056 25021 ft 466 kts 303°
2026-05-07 21:06 21.00321 -72.32941 25032 ft 466 kts 303°
2026-05-07 21:06 21.02118 -72.35836 25051 ft 467 kts 303°
2026-05-07 21:07 21.03917 -72.38736 25073 ft 468 kts 303°
2026-05-07 21:07 21.05716 -72.41638 25134 ft 467 kts 303°
2026-05-07 21:07 21.07510 -72.44532 25185 ft 467 kts 303°
2026-05-07 21:07 21.09305 -72.47432 25213 ft 467 kts 303°
2026-05-07 21:08 21.11101 -72.50333 25227 ft 468 kts 303°
2026-05-07 21:08 21.12898 -72.53237 25234 ft 468 kts 303°
2026-05-07 21:08 21.14695 -72.56143 25305 ft 468 kts 303°
2026-05-07 21:08 21.16491 -72.59049 25308 ft 468 kts 303°
2026-05-07 21:09 21.18290 -72.61962 25316 ft 469 kts 303°
2026-05-07 21:09 21.20092 -72.64880 25328 ft 469 kts 303°
2026-05-07 21:09 21.21894 -72.67801 25353 ft 469 kts 303°
2026-05-07 21:09 21.23692 -72.70717 25363 ft 470 kts 303°
2026-05-07 21:10 21.25493 -72.73641 25370 ft 470 kts 303°
2026-05-07 21:10 21.27293 -72.76565 25409 ft 470 kts 303°
2026-05-07 21:10 21.29091 -72.79487 25447 ft 469 kts 303°
2026-05-07 21:10 21.30886 -72.82407 25467 ft 469 kts 303°
2026-05-07 21:11 21.32684 -72.85332 25475 ft 470 kts 303°
2026-05-07 21:11 21.34482 -72.88258 25483 ft 470 kts 303°
2026-05-07 21:11 21.38076 -72.94113 25515 ft 470 kts 303°
2026-05-07 21:12 21.39871 -72.97040 25551 ft 469 kts 303°
2026-05-07 21:12 21.41664 -72.99965 25561 ft 470 kts 303°
2026-05-07 21:12 21.43437 -73.02859 25566 ft 470 kts 303°
2026-05-07 21:12 21.45255 -73.05827 25570 ft 470 kts 303°
2026-05-07 21:13 21.47052 -73.08764 25578 ft 470 kts 303°
2026-05-07 21:13 21.48823 -73.11659 25582 ft 471 kts 303°
2026-05-07 21:13 21.50619 -73.14595 25594 ft 471 kts 303°
2026-05-07 21:13 21.52415 -73.17534 25604 ft 471 kts 303°
2026-05-07 21:14 21.54211 -73.20476 25610 ft 471 kts 303°
2026-05-07 21:14 21.56007 -73.23417 25617 ft 471 kts 303°
2026-05-07 21:14 21.57803 -73.26361 25627 ft 471 kts 303°
2026-05-07 21:14 21.59597 -73.29304 25633 ft 471 kts 303°
2026-05-07 21:15 21.61392 -73.32248 25643 ft 471 kts 303°
2026-05-07 21:15 21.63185 -73.35192 25647 ft 471 kts 303°
2026-05-07 21:15 21.64980 -73.38141 25655 ft 471 kts 303°
2026-05-07 21:15 21.66774 -73.41089 25658 ft 471 kts 303°
2026-05-07 21:16 21.68567 -73.44037 25667 ft 471 kts 303°
2026-05-07 21:16 21.70360 -73.46987 25673 ft 471 kts 303°
2026-05-07 21:16 21.72151 -73.49935 25678 ft 471 kts 303°
2026-05-07 21:16 21.73943 -73.52886 25683 ft 471 kts 303°
2026-05-07 21:17 21.75736 -73.55841 25687 ft 471 kts 303°
2026-05-07 21:17 21.77525 -73.58792 25696 ft 471 kts 303°
2026-05-07 21:17 21.79315 -73.61744 25713 ft 471 kts 303°
2026-05-07 21:17 21.81103 -73.64696 25741 ft 471 kts 303°
2026-05-07 21:18 21.82889 -73.67646 25759 ft 471 kts 303°
2026-05-07 21:18 21.84678 -73.70602 25762 ft 471 kts 303°
2026-05-07 21:18 21.86464 -73.73554 25771 ft 471 kts 303°
2026-05-07 21:18 21.88248 -73.76505 25780 ft 471 kts 303°
2026-05-07 21:19 21.90035 -73.79464 25785 ft 471 kts 302°
2026-05-07 21:19 21.91821 -73.82420 25789 ft 471 kts 302°
2026-05-07 21:19 21.93604 -73.85374 25798 ft 471 kts 302°
2026-05-07 21:19 21.95389 -73.88333 25801 ft 471 kts 302°
2026-05-07 21:20 21.97173 -73.91294 25806 ft 471 kts 302°
2026-05-07 21:20 21.98956 -73.94253 25811 ft 471 kts 302°
2026-05-07 21:20 22.00741 -73.97216 25825 ft 471 kts 302°
2026-05-07 21:20 22.02522 -74.00175 25832 ft 471 kts 302°
2026-05-07 21:21 22.04304 -74.03138 25837 ft 471 kts 302°
2026-05-07 21:21 22.06064 -74.06065 25841 ft 471 kts 302°
2026-05-07 21:21 22.07844 -74.09027 25846 ft 471 kts 302°
2026-05-07 21:21 22.09625 -74.11993 25850 ft 471 kts 302°
2026-05-07 21:22 22.11406 -74.14960 25857 ft 471 kts 302°
2026-05-07 21:22 22.12607 -74.16962 25861 ft 471 kts 302°
2026-05-07 21:22 22.14965 -74.20895 25874 ft 471 kts 302°
2026-05-07 21:22 22.16167 -74.22900 25874 ft 471 kts 302°
2026-05-07 21:23 22.17946 -74.25870 25878 ft 471 kts 302°
2026-05-07 21:23 22.19724 -74.28841 25884 ft 471 kts 302°
2026-05-07 21:23 22.21502 -74.31812 25889 ft 471 kts 302°
2026-05-07 21:23 22.23281 -74.34786 25892 ft 471 kts 302°
2026-05-07 21:24 22.25057 -74.37758 25900 ft 471 kts 302°
2026-05-07 21:24 22.26834 -74.40733 25907 ft 471 kts 302°
2026-05-07 21:24 22.28609 -74.43706 25912 ft 471 kts 302°
2026-05-07 21:24 22.30382 -74.46678 25925 ft 471 kts 302°
2026-05-07 21:25 22.32134 -74.49615 25939 ft 471 kts 302°
2026-05-07 21:25 22.33930 -74.52628 25943 ft 471 kts 302°
2026-05-07 21:25 22.35701 -74.55601 25953 ft 471 kts 302°
2026-05-07 21:25 22.37449 -74.58537 25964 ft 471 kts 302°
2026-05-07 21:26 22.39243 -74.61552 25972 ft 471 kts 302°
2026-05-07 21:26 22.41013 -74.64530 25983 ft 471 kts 302°
2026-05-07 21:26 22.42759 -74.67468 25985 ft 471 kts 302°
2026-05-07 21:26 22.44528 -74.70445 25990 ft 471 kts 302°
2026-05-07 21:27 22.46297 -74.73426 25993 ft 471 kts 302°
2026-05-07 21:27 22.48068 -74.76410 25998 ft 471 kts 302°
2026-05-07 21:27 22.49834 -74.79389 26005 ft 471 kts 302°
2026-05-07 21:27 22.51604 -74.82374 26010 ft 471 kts 302°
2026-05-07 21:28 22.53371 -74.85358 26013 ft 471 kts 302°
2026-05-07 21:28 22.55137 -74.88340 26028 ft 471 kts 302°
2026-05-07 21:28 22.56904 -74.91327 26042 ft 471 kts 302°
2026-05-07 21:28 22.58668 -74.94311 26054 ft 471 kts 302°
2026-05-07 21:29 22.60431 -74.97293 26065 ft 471 kts 302°
2026-05-07 21:29 22.62195 -75.00280 26070 ft 471 kts 302°
2026-05-07 21:29 22.63958 -75.03267 26080 ft 471 kts 302°
2026-05-07 21:29 22.65719 -75.06252 26083 ft 471 kts 302°
2026-05-07 21:30 22.67480 -75.09238 26088 ft 471 kts 302°
2026-05-07 21:30 22.69241 -75.12226 26095 ft 471 kts 302°
2026-05-07 21:30 22.71001 -75.15215 26097 ft 471 kts 302°
2026-05-07 21:30 22.72762 -75.18206 26100 ft 471 kts 302°
2026-05-07 21:31 22.74521 -75.21197 26106 ft 471 kts 302°
2026-05-07 21:31 22.76280 -75.24188 26108 ft 471 kts 302°
2026-05-07 21:31 22.78039 -75.27181 26116 ft 471 kts 302°
2026-05-07 21:31 22.79797 -75.30176 26123 ft 471 kts 302°
2026-05-07 21:32 22.81556 -75.33172 26134 ft 471 kts 302°
2026-05-07 21:32 22.83314 -75.36169 26144 ft 471 kts 302°
2026-05-07 21:32 22.85070 -75.39164 26151 ft 471 kts 302°
2026-05-07 21:32 22.86824 -75.42158 26159 ft 471 kts 302°
2026-05-07 21:33 22.88580 -75.45157 26167 ft 471 kts 302°
2026-05-07 21:33 22.90334 -75.48154 26176 ft 471 kts 302°
2026-05-07 21:33 22.92088 -75.51152 26181 ft 471 kts 302°
2026-05-07 21:33 22.93840 -75.54150 26184 ft 471 kts 302°
2026-05-07 21:34 22.95595 -75.57154 26192 ft 471 kts 302°
2026-05-07 21:34 22.97347 -75.60154 26201 ft 471 kts 302°
2026-05-07 21:34 22.99100 -75.63157 26205 ft 471 kts 302°
2026-05-07 21:34 23.00850 -75.66159 26209 ft 471 kts 302°
2026-05-07 21:35 23.02603 -75.69166 26216 ft 471 kts 302°
2026-05-07 21:35 23.04354 -75.72172 26222 ft 471 kts 302°
2026-05-07 21:35 23.06103 -75.75177 26231 ft 471 kts 302°
2026-05-07 21:35 23.07853 -75.78184 26235 ft 471 kts 302°
2026-05-07 21:36 23.09602 -75.81192 26238 ft 471 kts 302°
2026-05-07 21:36 23.11349 -75.84199 26249 ft 471 kts 302°
2026-05-07 21:36 23.13097 -75.87208 26255 ft 471 kts 302°
2026-05-07 21:36 23.14845 -75.90219 26266 ft 471 kts 302°
2026-05-07 21:37 23.16591 -75.93228 26272 ft 471 kts 302°
2026-05-07 21:37 23.18336 -75.96237 26282 ft 471 kts 302°
2026-05-07 21:37 23.20080 -75.99248 26297 ft 471 kts 302°
2026-05-07 21:37 23.21825 -76.02262 26301 ft 471 kts 302°
2026-05-07 21:38 23.23545 -76.05233 26309 ft 471 kts 302°
2026-05-07 21:38 23.25289 -76.08247 26318 ft 471 kts 302°
2026-05-07 21:38 23.27030 -76.11259 26327 ft 471 kts 302°
2026-05-07 21:38 23.28772 -76.14275 26336 ft 471 kts 302°
2026-05-07 21:39 23.30512 -76.17289 26341 ft 471 kts 302°
2026-05-07 21:39 23.32255 -76.20309 26345 ft 471 kts 302°
2026-05-07 21:39 23.33994 -76.23324 26348 ft 471 kts 302°
2026-05-07 21:39 23.35733 -76.26341 26355 ft 471 kts 302°
2026-05-07 21:40 23.37473 -76.29362 26363 ft 471 kts 302°
2026-05-07 21:40 23.39213 -76.32383 26366 ft 471 kts 302°
2026-05-07 21:40 23.40950 -76.35402 26370 ft 471 kts 302°
2026-05-07 21:40 23.42689 -76.38427 26369 ft 471 kts 302°
2026-05-07 21:41 23.44424 -76.41447 26368 ft 471 kts 302°
2026-05-07 21:41 23.46162 -76.44473 26369 ft 471 kts 302°